Watertown, WI

10:02 PM CDT on October 20, 2019 (GMT -0500)
Watertown Municipal

Weather History for KRYV - September, 2019

Change the Weather History Date:

Monday, September 16, 2019

  Actual Average Record
Temperature  
Mean Temperature 70 °F -  
Max Temperature 79 °F 70 °F 92 °F (1948)
Min Temperature 60 °F 49 °F 34 °F (2014)
Cooling Degree Days 4    
Growing Degree Days 20 (Base 50)    
Moisture  
Dew Point 63 °F    
Average Humidity 88    
Maximum Humidity 100    
Minimum Humidity 54    
Precipitation  
Precipitation 0.00 in - - ()
Sea Level Pressure  
Sea Level Pressure 30.12 in    
Wind  
Wind Speed 1 mph ()    
Max Wind Speed 6 mph    
Max Gust Speed -    
Visibility 6.2 miles    
Events Fog    
Averages and records for this station are not official NWS values.
T = Trace of Precipitation, MM = Missing Value Source: Averaged Metar Reports

Daily Weather History Graph

Daily Weather History Graph

Search for Another Location

Airport or City:

Astronomy

Sep. 16, 2019 Rise Set
Actual Time 6:35 AM CDT 7:03 PM CDT
Civil Twilight 6:06 AM CDT 7:31 PM CDT
Nautical Twilight 5:33 AM CDT 8:05 PM CDT
Astronomical Twilight 4:58 AM CDT 8:40 PM CDT
Moon 8:34 PM CDT (9/16) 8:44 AM CDT (9/16)
Length of Visible Light 13h 25m
Length of Day
12h 28m
Waning Gibbous, 94% of the Moon is Illuminated
Sep 16
Waning Gibbous
Sep 21
Last Quarter
Sep 28
New
Oct 5
First Quarter
Oct 13
Full

Hourly Weather History & Observations

Time (CDT) Temp. Dew Point Humidity Pressure Visibility Wind Dir Wind Speed Gust Speed Precip Events Conditions
12:15 AM 62.2 °F 62.2 °F 100% 30.05 in 0.2 mi Calm Calm - N/A Fog Fog
12:35 AM 62.2 °F 62.2 °F 100% 30.05 in 0.5 mi Calm Calm - N/A Fog Fog
12:55 AM 64.4 °F 64.4 °F 100% 30.06 in 0.2 mi NNW 3.5 mph - N/A Fog Fog
1:15 AM 64.4 °F 64.4 °F 100% 30.06 in 0.5 mi Calm Calm - N/A Fog Fog
1:55 AM 63.9 °F 63.9 °F 100% 30.07 in 0.5 mi Calm Calm - N/A Fog Fog
2:15 AM 63.9 °F 63.9 °F 100% 30.07 in 0.2 mi Calm Calm - N/A Fog Fog
2:35 AM 63.7 °F 63.7 °F 100% 30.07 in 0.2 mi Calm Calm - N/A Fog Fog
2:55 AM 63.1 °F 63.1 °F 100% 30.07 in 0.5 mi Calm Calm - N/A Fog Fog
3:15 AM 63.0 °F 63.0 °F 100% 30.07 in 0.5 mi Calm Calm - N/A Fog Fog
3:35 AM 62.8 °F 62.8 °F 100% 30.08 in 0.5 mi Calm Calm - N/A Fog Fog
3:55 AM 62.6 °F 62.6 °F 100% 30.09 in 0.2 mi NW 3.5 mph - N/A Fog Fog
4:15 AM 62.2 °F 62.2 °F 100% 30.09 in 0.2 mi Calm Calm - N/A Fog Fog
4:35 AM 61.7 °F 61.7 °F 100% 30.09 in 0.2 mi Calm Calm - N/A Fog Fog
4:55 AM 61.7 °F 61.7 °F 100% 30.09 in 0.2 mi Calm Calm - N/A Fog Fog
5:35 AM 61.5 °F 61.5 °F 100% 30.10 in 0.5 mi NNW 3.5 mph - N/A Fog Fog
5:55 AM 61.5 °F 61.5 °F 100% 30.10 in 0.5 mi Calm Calm - N/A Fog Fog
6:15 AM 61.7 °F 61.7 °F 100% 30.11 in 0.5 mi NNE 4.6 mph - N/A Fog Fog
6:35 AM 61.3 °F 61.3 °F 100% 30.12 in 0.8 mi NNE 3.5 mph - N/A   Overcast
6:55 AM 61.0 °F 61.0 °F 100% 30.12 in 0.5 mi North 3.5 mph - N/A Fog Fog
7:15 AM 60.8 °F 60.8 °F 100% 30.13 in 0.5 mi Calm Calm - N/A Fog Fog
7:35 AM 60.6 °F 60.6 °F 100% 30.13 in 0.5 mi NNE 3.5 mph - N/A Fog Fog
7:55 AM 60.8 °F 60.8 °F 100% 30.13 in 0.5 mi Calm Calm - N/A Fog Fog
8:35 AM 61.7 °F 61.7 °F 100% 30.15 in 0.5 mi Calm Calm - N/A Fog Fog
8:55 AM 62.6 °F 62.6 °F 100% 30.16 in 1.2 mi NE 3.5 mph - N/A   Overcast
9:15 AM 62.6 °F 62.6 °F 100% 30.16 in 2.0 mi Calm Calm - N/A   Overcast
9:35 AM 62.8 °F 62.8 °F 100% 30.17 in 4.0 mi Calm Calm - N/A   Overcast
9:55 AM 63.5 °F 63.5 °F 100% 30.17 in 7.0 mi Calm Calm - N/A   Overcast
10:15 AM 64.0 °F 64.0 °F 100% 30.17 in 7.0 mi NE 3.5 mph - N/A   Overcast
10:35 AM 64.4 °F 64.4 °F 100% 30.17 in 10.0 mi Calm Calm - N/A   Overcast
10:55 AM 66.4 °F 66.4 °F 100% 30.16 in 10.0 mi East 3.5 mph - N/A   Overcast
11:15 AM 69.6 °F 69.4 °F 99% 30.16 in 10.0 mi Calm Calm - N/A   Overcast
11:35 AM 70.2 °F 68.4 °F 94% 30.16 in 10.0 mi ENE 3.5 mph - N/A   Mostly Cloudy
11:55 AM 72.0 °F 69.4 °F 92% 30.16 in 10.0 mi East 4.6 mph - N/A   Scattered Clouds
12:15 PM 73.0 °F 69.3 °F 88% 30.16 in 10.0 mi Calm Calm - N/A   Clear
12:35 PM 73.4 °F 68.5 °F 85% 30.16 in 10.0 mi Calm Calm - N/A   Clear
12:55 PM 74.8 °F 68.0 °F 79% 30.15 in 10.0 mi Calm Calm - N/A   Clear
1:15 PM 75.6 °F 65.5 °F 71% 30.14 in 10.0 mi ESE 3.5 mph - N/A   Clear
1:35 PM 77.0 °F 66.4 °F 70% 30.13 in 10.0 mi Calm Calm - N/A   Clear
1:55 PM 76.8 °F 60.8 °F 58% 30.13 in 7.0 mi Calm Calm - N/A   Clear
2:15 PM 78.1 °F 64.6 °F 63% 30.12 in 10.0 mi Calm Calm - N/A   Clear
2:35 PM 78.3 °F 61.5 °F 56% 30.12 in 10.0 mi Calm Calm - N/A   Clear
2:55 PM 79.5 °F 62.6 °F 56% 30.11 in 10.0 mi East 4.6 mph - N/A   Clear
3:15 PM 79.2 °F 61.3 °F 54% 30.11 in 10.0 mi Calm Calm - N/A   Clear
3:35 PM 79.2 °F 62.4 °F 56% 30.11 in 10.0 mi ESE 5.8 mph - N/A   Clear
3:55 PM 79.2 °F 62.2 °F 56% 30.11 in 10.0 mi ESE 4.6 mph - N/A   Clear
4:15 PM 79.3 °F 61.9 °F 55% 30.11 in 10.0 mi Calm Calm - N/A   Clear
4:35 PM 79.5 °F 63.5 °F 58% 30.11 in 10.0 mi East 3.5 mph - N/A   Clear
4:55 PM 78.8 °F 61.7 °F 56% 30.11 in 10.0 mi ESE 3.5 mph - N/A   Clear
5:15 PM 77.5 °F 61.3 °F 57% 30.11 in 10.0 mi ESE 3.5 mph - N/A   Clear
5:35 PM 76.3 °F 63.3 °F 64% 30.11 in 10.0 mi ESE 4.6 mph - N/A   Clear
5:55 PM 76.1 °F 64.4 °F 67% 30.11 in 10.0 mi ESE 3.5 mph - N/A   Clear
6:15 PM 75.4 °F 64.0 °F 68% 30.11 in 10.0 mi ESE 4.6 mph - N/A   Clear
6:35 PM 73.4 °F 63.9 °F 72% 30.11 in 10.0 mi ESE 4.6 mph - N/A   Clear
6:55 PM 71.4 °F 63.5 °F 76% 30.11 in 10.0 mi ESE 5.8 mph - N/A   Clear
7:15 PM 70.2 °F 63.5 °F 79% 30.11 in 10.0 mi ESE 4.6 mph - N/A   Clear
7:35 PM 68.2 °F 63.5 °F 85% 30.12 in 10.0 mi ESE 4.6 mph - N/A   Clear
7:55 PM 66.2 °F 63.9 °F 92% 30.12 in 10.0 mi ESE 3.5 mph - N/A   Clear
8:15 PM 65.8 °F 64.0 °F 94% 30.12 in 10.0 mi ESE 4.6 mph - N/A   Clear
8:35 PM 65.8 °F 63.9 °F 93% 30.12 in 10.0 mi ESE 3.5 mph - N/A   Clear
8:55 PM 64.4 °F 64.2 °F 99% 30.12 in 10.0 mi ESE 3.5 mph - N/A   Clear
9:35 PM 63.0 °F 63.0 °F 100% 30.13 in 10.0 mi Calm Calm - N/A   Clear
9:55 PM 62.4 °F 62.4 °F 100% 30.13 in 10.0 mi Calm Calm - N/A   Clear
10:35 PM 61.0 °F 61.0 °F 100% 30.14 in 10.0 mi Calm Calm - N/A   Clear
10:55 PM 61.0 °F 61.0 °F 100% 30.14 in 10.0 mi Calm Calm - N/A   Clear
11:15 PM 61.0 °F 61.0 °F 100% 30.14 in 10.0 mi Calm Calm - N/A   Clear
11:35 PM 61.0 °F 61.0 °F 100% 30.14 in 10.0 mi Calm Calm - N/A   Clear
11:55 PM 60.1 °F 60.1 °F 100% 30.14 in 10.0 mi Calm Calm - N/A   Clear